This is the latest recevied weather packets stored in our database for station/object KB2FWP. If no packets are shown the sender has not sent any weather packets the latest 10 day(s).
| Time | Temp. | Humidity | Pressure | Rain* | Wind** | Luminosity | Snow |
|---|---|---|---|---|---|---|---|
| 1788128125 | 23.89° C | 88% | 1019.7 hPa | 0 mm | - | - | - |
| 1788127225 | 23.89° C | 87% | 1019.5 hPa | 0 mm | - | - | - |
| 1788126324 | 23.89° C | 87% | 1019.4 hPa | 0 mm | - | - | - |
| 1788125438 | 24.44° C | 86% | 1019.6 hPa | 0 mm | - | - | - |
| 1788124583 | 23.89° C | 87% | 1019.7 hPa | 0 mm | - | - | - |
| 1788123625 | 23.89° C | 86% | 1019.7 hPa | 0 mm | - | - | - |
| 1788122736 | 23.89° C | 86% | 1019.7 hPa | 0 mm | - | - | - |
| 1788121822 | 23.89° C | 85% | 1019.9 hPa | 0 mm | - | - | - |
| 1788120917 | 24.44° C | 84% | 1020.1 hPa | 0 mm | - | - | - |
| 1788120016 | 23.89° C | 84% | 1020.1 hPa | 0 mm | - | - | - |
| 1788119115 | 23.89° C | 84% | 1020.4 hPa | 0 mm | - | - | - |
| 1788118227 | 23.89° C | 83% | 1020.5 hPa | 0 mm | - | - | - |
| 1788117324 | 23.89° C | 82% | 1020.8 hPa | 0 mm | - | - | - |
| 1788116409 | 24.44° C | 82% | 1021 hPa | 0 mm | - | - | - |
| 1788115511 | 25° C | 81% | 1021.2 hPa | 0 mm | - | - | - |
| 1788114607 | 25° C | 81% | 1021.4 hPa | 0 mm | - | - | - |
| 1788113704 | 25° C | 80% | 1021.5 hPa | 0 mm | - | - | - |
| 1788112810 | 25° C | 77% | 1021.5 hPa | 0 mm | - | - | - |
| 1788111907 | 24.44° C | 78% | 1021.8 hPa | 0 mm | - | - | - |
| 1788111002 | 25° C | 76% | 1021.8 hPa | 0 mm | - | - | - |
| 1788110161 | 25° C | 74% | 1021.9 hPa | 0 mm | - | - | - |
| 1788109258 | 24.44° C | 76% | 1022 hPa | 0 mm | - | - | - |
| 1788108357 | 25° C | 74% | 1022.4 hPa | 0 mm | - | - | - |
| 1788107455 | 25° C | 72% | 1022.2 hPa | 0 mm | - | - | - |
| 1788106577 | 25.56° C | 72% | 1022.3 hPa | 0 mm | - | - | - |
* Rain latest hour (hover to see other rain measurements)
** Current wind speed in m/s (hover to see current wind gust speed)